Precipitable_Water
1.52 1.49 1.44 1.40 1.39 1.36 1.29 1.24 1.19 1.13 1.06 0.94 0.84 0.78 0.74 0.76 0.82 0.88 1.01 1.15 1.23 1.24 1.39 1.24 1.37 1.42 1.51 1.57 1.53 1.45 1.46 1.67 1.51 1.64 1.88 2.01 1.96 1.97 2.04 2.10 2.11 2.10 2.07
1.34 1.33 1.30 1.29 1.24 1.17 1.09 1.02 0.98 0.88 0.78 0.71 0.70 0.69 0.67 0.68 0.69 0.68 0.70 0.78 0.80 0.87 1.04 1.13 1.16 1.19 1.26 1.36 1.43 1.46 1.38 1.37 1.40 1.44 1.78 1.95 1.89 1.97 2.03 2.05 2.08 2.13 2.14
1.32 1.23 1.14 1.10 0.99 0.88 0.82 0.76 0.71 0.71 0.72 0.71 0.70 0.68 0.70 0.74 0.76 0.77 0.74 0.72 0.71 0.71 0.77 0.82 0.87 1.00 1.13 1.26 1.31 1.31 1.41 1.45 1.41 1.32 1.32 1.62 1.77 1.89 1.82 1.92 1.93 2.09 2.09
1.14 1.03 0.88 0.78 0.73 0.69 0.68 0.71 0.72 0.72 0.69 0.69 0.71 0.75 0.78 0.80 0.80 0.80 0.80 0.81 0.81 0.82 0.85 0.84 0.79 0.75 0.82 1.04 1.22 1.25 1.30 1.31 1.37 1.37 1.35 1.31 1.24 1.41 1.65 1.79 1.87 1.94 1.99
0.88 0.77 0.69 0.69 0.68 0.68 0.66 0.66 0.65 0.64 0.63 0.68 0.69 0.71 0.71 0.72 0.68 0.68 0.72 0.76 0.77 0.79 0.83 0.85 0.92 0.95 0.93 0.86 0.96 1.11 1.19 1.21 1.28 1.32 1.33 1.33 1.28 1.29 1.14 1.26 1.37 1.63 1.91
0.77 0.67 0.67 0.65 0.62 0.60 0.58 0.60 0.60 0.60 0.59 0.59 0.57 0.57 0.57 0.58 0.60 0.61 0.62 0.59 0.62 0.64 0.64 0.73 0.82 0.92 0.95 1.00 1.02 1.05 1.06 1.04 1.03 1.14 1.25 1.25 1.36 1.46 1.45 1.35 1.26 1.10 1.06
0.66 0.63 0.60 0.58 0.56 0.55 0.57 0.56 0.51 0.47 0.48 0.45 0.43 0.43 0.42 0.44 0.46 0.49 0.52 0.54 0.57 0.60 0.62 0.65 0.71 0.81 0.87 0.88 0.92 0.98 1.08 1.12 1.13 1.15 1.07 1.26 1.39 1.51 1.56 1.45 1.35 1.28 1.23
0.60 0.55 0.53 0.51 0.47 0.53 0.54 0.48 0.45 0.44 0.42 0.40 0.40 0.42 0.42 0.41 0.42 0.41 0.45 0.49 0.51 0.56 0.61 0.65 0.70 0.75 0.79 0.80 0.82 0.88 0.94 0.99 1.10 1.15 1.17 1.29 1.38 1.54 1.66 1.58 1.50 1.46 1.43
0.49 0.47 0.48 0.48 0.48 0.51 0.48 0.45 0.45 0.44 0.43 0.44 0.44 0.42 0.41 0.41 0.42 0.42 0.42 0.43 0.45 0.48 0.55 0.62 0.66 0.70 0.76 0.80 0.79 0.80 0.86 0.92 1.02 1.07 1.12 1.13 1.34 1.43 1.44 1.50 1.43 1.40 1.29
0.52 0.55 0.56 0.53 0.47 0.43 0.43 0.45 0.49 0.51 0.49 0.48 0.47 0.47 0.46 0.44 0.42 0.42 0.42 0.41 0.40 0.45 0.54 0.56 0.62 0.67 0.73 0.77 0.77 0.77 0.74 0.84 0.94 0.95 0.98 1.05 1.10 1.21 1.27 1.38 1.38 1.28 1.26
0.56 0.56 0.55 0.52 0.50 0.50 0.51 0.52 0.51 0.50 0.52 0.53 0.54 0.54 0.50 0.50 0.50 0.46 0.45 0.43 0.41 0.41 0.43 0.50 0.59 0.60 0.64 0.73 0.81 0.82 0.82 0.89 0.92 0.97 1.02 1.01 1.02 1.08 1.15 1.31 1.36 1.39 1.31
0.50 0.52 0.54 0.55 0.53 0.53 0.53 0.53 0.53 0.54 0.53 0.51 0.48 0.51 0.57 0.56 0.53 0.51 0.49 0.49 0.49 0.44 0.42 0.46 0.52 0.57 0.61 0.63 0.68 0.76 0.86 0.92 0.91 0.92 0.95 0.97 1.02 1.09 1.11 1.19 1.33 1.38 1.44
0.51 0.51 0.52 0.53 0.53 0.53 0.50 0.52 0.52 0.53 0.49 0.47 0.46 0.48 0.51 0.57 0.57 0.55 0.55 0.53 0.53 0.51 0.51 0.47 0.45 0.48 0.51 0.54 0.59 0.66 0.70 0.77 0.80 0.86 0.86 0.87 0.95 1.06 1.17 1.18 1.25 1.31 1.40
0.49 0.50 0.52 0.52 0.51 0.51 0.51 0.53 0.53 0.52 0.51 0.51 0.48 0.47 0.51 0.57 0.59 0.58 0.56 0.56 0.57 0.56 0.54 0.55 0.54 0.53 0.49 0.49 0.49 0.50 0.58 0.66 0.68 0.80 0.80 0.94 1.00 0.97 1.02 1.15 1.13 1.21 1.21
0.49 0.49 0.51 0.51 0.48 0.50 0.54 0.55 0.55 0.58 0.56 0.53 0.54 0.54 0.54 0.54 0.55 0.55 0.56 0.53 0.53 0.53 0.51 0.52 0.52 0.52 0.52 0.53 0.51 0.48 0.47 0.47 0.53 0.66 0.71 0.84 0.87 0.97 0.97 1.03 1.07 1.16 1.13
0.46 0.49 0.51 0.50 0.52 0.55 0.55 0.56 0.60 0.58 0.56 0.58 0.59 0.60 0.60 0.61 0.60 0.57 0.57 0.57 0.57 0.58 0.56 0.50 0.46 0.49 0.50 0.52 0.54 0.54 0.55 0.52 0.48 0.50 0.56 0.65 0.78 0.83 0.91 0.95 1.00 0.99 1.02
0.51 0.53 0.54 0.52 0.53 0.54 0.57 0.56 0.49 0.53 0.57 0.60 0.62 0.60 0.60 0.59 0.59 0.61 0.61 0.62 0.60 0.61 0.56 0.50 0.46 0.45 0.45 0.47 0.50 0.53 0.54 0.57 0.59 0.54 0.49 0.50 0.62 0.75 0.81 0.88 0.94 0.97 0.92
0.56 0.55 0.59 0.60 0.61 0.61 0.59 0.54 0.52 0.50 0.49 0.52 0.60 0.59 0.58 0.58 0.60 0.61 0.62 0.61 0.61 0.61 0.60 0.56 0.54 0.52 0.49 0.46 0.44 0.45 0.49 0.52 0.54 0.54 0.49 0.45 0.47 0.59 0.73 0.82 0.84 0.95 0.94
0.59 0.60 0.62 0.63 0.65 0.63 0.61 0.56 0.58 0.57 0.58 0.58 0.61 0.65 0.66 0.64 0.64 0.62 0.62 0.60 0.59 0.61 0.63 0.60 0.60 0.60 0.58 0.55 0.50 0.49 0.49 0.49 0.52 0.53 0.49 0.46 0.44 0.43 0.56 0.70 0.77 0.88 0.97
0.63 0.62 0.63 0.64 0.62 0.63 0.60 0.58 0.61 0.65 0.64 0.64 0.63 0.65 0.73 0.73 0.65 0.63 0.60 0.62 0.61 0.62 0.65 0.66 0.62 0.63 0.64 0.62 0.58 0.56 0.52 0.50 0.48 0.48 0.48 0.47 0.45 0.43 0.42 0.55 0.68 0.78 0.91
0.61 0.64 0.63 0.63 0.63 0.65 0.64 0.65 0.67 0.70 0.70 0.69 0.71 0.79 0.70 0.65 0.63 0.64 0.63 0.60 0.62 0.66 0.65 0.64 0.66 0.64 0.67 0.67 0.63 0.53 0.51 0.52 0.47 0.47 0.46 0.44 0.45 0.43 0.42 0.45 0.57 0.68 0.80
0.68 0.66 0.66 0.67 0.67 0.66 0.67 0.68 0.68 0.68 0.68 0.69 0.71 0.69 0.66 0.62 0.60 0.61 0.65 0.67 0.68 0.68 0.68 0.66 0.62 0.63 0.66 0.67 0.62 0.55 0.53 0.50 0.45 0.44 0.42 0.42 0.42 0.42 0.42 0.42 0.46 0.55 0.73
0.70 0.69 0.71 0.71 0.69 0.68 0.68 0.70 0.70 0.71 0.69 0.66 0.61 0.57 0.53 0.51 0.57 0.63 0.68 0.69 0.71 0.69 0.62 0.65 0.67 0.63 0.64 0.66 0.62 0.56 0.47 0.41 0.39 0.38 0.38 0.39 0.40 0.39 0.40 0.41 0.42 0.47 0.55
0.72 0.71 0.72 0.71 0.70 0.69 0.70 0.72 0.73 0.71 0.61 0.57 0.54 0.49 0.49 0.54 0.60 0.64 0.65 0.65 0.66 0.64 0.62 0.59 0.55 0.55 0.55 0.49 0.47 0.44 0.42 0.40 0.38 0.38 0.39 0.37 0.37 0.38 0.39 0.40 0.41 0.42 0.49
0.72 0.72 0.71 0.72 0.72 0.71 0.70 0.69 0.62 0.59 0.55 0.50 0.46 0.46 0.48 0.49 0.49 0.48 0.48 0.47 0.46 0.44 0.43 0.41 0.41 0.40 0.39 0.38 0.38 0.39 0.39 0.37 0.38 0.38 0.39 0.39 0.37 0.38 0.37 0.38 0.40 0.41 0.44
0.77 0.77 0.78 0.78 0.76 0.68 0.64 0.57 0.56 0.54 0.49 0.45 0.46 0.45 0.43 0.40 0.40 0.39 0.38 0.37 0.36 0.35 0.34 0.34 0.34 0.34 0.37 0.40 0.43 0.44 0.44 0.43 0.42 0.40 0.39 0.38 0.39 0.39 0.38 0.37 0.38 0.39 0.40
Wind_Speed
3 5 8 9 12 14 17 19 21 22 23 25 25 24 23 22 22 21 22 21 22 22 23 23 24 24 24 23 22 22 22 22 23 24 23 24 25 26 27 27 27 27 25
6 9 11 12 15 17 19 20 22 23 24 23 23 22 22 21 21 21 21 21 22 23 24 25 26 25 26 26 26 25 24 23 23 24 26 25 27 28 28 29 30 30 30
9 12 13 15 16 18 20 22 22 22 22 21 21 21 20 20 20 20 20 20 21 21 22 24 25 26 27 27 26 27 27 26 26 25 26 26 25 29 32 33 31 28 30
12 14 15 17 18 19 20 20 20 20 20 20 20 19 19 19 19 20 20 20 20 20 20 21 23 25 27 28 28 29 29 29 29 28 27 27 27 26 27 26 29 25 27
15 16 17 18 18 19 19 19 19 19 19 18 18 18 18 18 20 20 20 20 20 21 21 21 21 22 24 26 28 29 30 30 29 30 30 29 28 27 27 27 28 27 27
15 16 16 17 17 17 16 16 16 16 17 17 18 18 19 19 21 21 21 21 21 21 22 22 23 22 23 24 26 28 30 31 32 32 32 33 31 30 29 28 28 28 29
15 15 16 16 15 15 14 15 16 17 17 17 17 18 18 19 20 21 21 20 21 22 22 23 24 24 24 25 27 29 30 31 33 34 35 34 33 33 32 31 30 29 29
14 14 15 14 14 14 14 15 15 15 16 16 17 18 18 20 21 22 22 21 21 22 22 23 24 25 26 27 28 29 30 31 32 33 35 35 36 35 35 34 32 32 31
13 13 14 13 13 13 14 15 15 15 16 17 18 19 19 20 21 22 22 22 22 22 23 23 24 25 27 28 29 29 30 31 32 34 36 37 38 37 39 38 36 34 33
12 13 13 13 13 14 15 15 15 16 17 17 18 18 20 21 22 23 23 22 23 23 23 24 24 26 27 27 28 29 29 30 32 33 34 36 37 38 40 40 39 38 36
12 12 13 13 14 15 15 15 16 16 17 18 19 19 19 20 21 22 23 23 24 24 24 25 25 27 27 27 27 27 28 30 30 31 32 32 34 36 37 37 40 40 39
11 11 13 14 15 15 15 16 15 16 18 19 18 18 19 21 22 23 24 25 25 25 25 25 25 26 26 25 25 26 27 27 28 29 29 29 29 30 33 36 38 39 41
10 12 13 14 15 15 15 15 16 17 18 17 18 18 20 21 22 23 25 26 26 26 26 26 26 25 24 23 24 24 23 24 25 26 28 29 29 30 31 33 35 38 38
11 12 13 14 15 14 14 14 16 17 17 17 18 19 20 22 23 24 25 25 26 26 27 25 25 24 24 23 22 22 22 21 22 22 25 26 28 28 29 29 31 33 35
11 11 13 13 12 12 13 15 16 17 17 18 19 20 21 22 24 24 24 25 25 26 26 25 25 25 24 24 23 22 21 21 21 21 23 23 25 26 28 29 30 30 31
10 10 11 12 12 13 15 17 17 18 19 19 20 20 21 22 24 24 24 24 25 26 25 25 25 25 25 24 24 23 22 22 22 21 21 22 24 24 25 27 29 30 31
10 11 12 12 13 15 17 18 18 19 19 19 20 20 21 23 24 24 24 25 25 25 25 25 26 26 25 25 24 24 23 23 23 22 22 21 22 23 24 25 25 29 30
11 12 12 13 15 16 18 18 18 18 19 20 20 21 22 23 24 25 24 25 25 24 25 26 25 25 25 25 24 24 24 23 23 23 23 22 21 21 23 23 24 24 27
12 12 13 14 16 17 17 17 18 18 19 21 22 23 24 25 26 26 24 24 25 25 25 26 26 25 25 25 25 25 25 24 24 23 23 23 22 21 22 23 24 24 24
13 13 14 15 16 17 17 18 19 20 21 23 24 25 27 27 26 26 25 25 25 26 26 26 27 26 27 27 27 26 26 25 24 24 23 23 23 22 22 22 23 25 23
13 14 14 14 16 17 18 19 21 22 23 25 26 27 28 27 27 27 27 26 26 27 27 27 27 27 28 28 28 28 27 27 26 25 25 24 24 22 22 21 22 23 26
13 12 12 14 16 18 20 21 22 23 25 26 26 26 28 28 28 27 26 26 27 28 28 27 27 28 28 28 28 29 29 28 28 27 26 25 24 23 22 21 21 22 23
12 12 14 16 18 20 21 23 24 24 24 24 26 28 28 28 27 25 25 26 27 28 28 27 26 27 28 28 29 29 29 29 28 27 26 25 24 23 22 22 21 21 22
13 14 16 18 19 21 23 24 23 22 23 25 27 27 27 26 26 25 26 26 26 27 26 26 26 27 27 28 30 29 29 29 29 27 26 25 24 24 23 22 21 21 22
15 16 17 19 20 21 22 22 22 23 24 25 26 26 26 25 25 25 26 26 26 26 27 27 27 29 29 31 30 30 31 30 29 28 26 25 24 24 23 22 22 21 21
16 18 19 20 20 20 22 22 22 23 25 25 25 25 25 25 25 26 26 26 27 27 27 27 28 30 31 30 30 32 31 30 29 28 27 26 25 24 23 23 23 22 22
Wind_Direction
1 336 325 310 305 304 308 309 310 310 311 312 312 310 308 304 299 294 291 288 282 277 275 273 272 270 268 267 267 265 263 261 263 257 257 254 251 251 250 250 249 249 249
313 317 316 311 308 307 308 308 308 310 311 311 312 313 312 308 304 300 295 291 288 282 277 274 272 270 268 266 264 263 264 264 263 261 258 257 256 254 253 253 253 253 249
317 317 315 314 312 311 311 311 312 312 313 314 315 315 314 313 310 306 301 297 293 289 284 279 275 271 267 265 264 262 262 262 262 262 261 260 263 257 257 253 253 248 250
318 318 318 316 315 314 313 314 315 316 317 317 317 317 317 316 314 311 307 302 299 295 293 289 282 275 270 266 265 264 263 263 261 261 260 260 262 260 257 258 257 243 251
319 319 319 318 318 318 318 319 320 321 322 322 322 320 319 317 316 314 310 305 301 298 296 293 290 285 277 270 267 265 264 263 262 259 259 259 260 259 258 258 256 258 253
318 319 319 320 321 322 323 326 329 329 329 328 328 326 324 321 321 319 315 308 304 300 297 294 292 287 285 279 274 270 266 264 262 261 261 258 258 258 258 258 259 258 255
319 320 321 322 324 326 328 329 329 329 330 331 331 331 330 329 328 325 321 314 311 306 300 296 292 289 288 285 279 274 269 266 263 262 260 259 258 257 258 258 258 257 256
320 322 324 325 326 326 327 329 330 331 333 334 335 335 333 332 331 329 325 321 317 312 307 301 297 293 290 288 283 278 273 269 266 263 260 260 258 257 257 257 258 257 256
320 323 325 325 325 325 327 328 329 331 333 334 334 334 335 336 336 334 331 327 324 321 316 311 304 299 296 292 286 281 278 274 268 265 263 260 258 257 255 256 255 254 255
317 322 325 328 330 329 328 328 329 329 329 330 333 334 334 335 337 337 335 331 328 324 322 318 313 309 303 297 289 284 280 277 275 271 266 263 259 257 255 253 253 252 252
318 322 327 329 328 328 328 327 327 328 330 330 329 329 333 336 337 339 339 335 331 327 324 320 317 317 311 303 296 290 284 279 276 273 270 266 262 258 255 253 251 250 250
320 324 328 327 327 326 326 326 327 328 328 328 330 331 333 334 335 337 337 338 336 332 329 326 322 319 315 312 305 298 290 283 278 274 271 269 266 262 258 254 252 250 248
318 323 325 326 325 324 325 327 327 329 330 332 333 333 334 333 333 334 335 335 335 333 331 329 328 325 323 318 314 310 302 293 285 278 272 270 268 264 262 256 253 250 248
316 318 323 325 326 326 326 327 330 332 333 334 334 335 335 336 335 334 334 334 334 334 333 331 330 329 328 324 321 319 312 305 296 288 281 274 268 266 263 259 256 252 248
314 317 323 327 329 331 333 331 330 329 329 330 331 332 333 336 337 336 335 335 334 334 333 332 331 330 328 326 325 323 318 316 309 300 288 282 276 269 264 261 257 255 250
310 316 323 326 326 328 329 330 327 326 324 323 323 327 330 331 334 336 336 336 336 335 335 334 332 331 328 324 321 319 320 318 312 310 303 290 280 274 269 264 259 255 252
309 315 318 319 321 323 325 327 328 330 330 327 325 324 326 328 330 331 333 334 334 336 336 336 335 333 331 329 324 320 317 316 313 310 306 304 289 278 272 267 265 257 253
308 312 314 317 320 323 325 326 326 328 331 335 334 333 330 330 328 327 327 329 330 332 334 334 335 335 334 332 330 326 320 316 314 312 309 304 302 288 277 268 265 264 257
308 310 313 318 321 323 325 326 327 328 328 329 329 330 330 328 329 329 325 324 325 326 327 329 330 331 331 331 330 327 325 319 315 311 310 308 303 297 285 273 265 263 261
307 308 311 315 319 320 321 323 324 325 325 325 326 327 326 325 325 326 326 324 322 323 322 322 324 324 326 326 325 324 323 321 316 312 309 307 305 300 293 280 269 259 256
307 309 311 313 319 322 321 321 321 322 322 323 323 324 326 324 323 322 322 324 323 322 321 319 319 320 320 321 322 322 319 318 316 311 308 306 303 300 296 286 277 263 257
307 310 314 316 319 321 321 321 321 322 322 323 325 327 327 326 324 323 322 323 324 324 323 321 319 320 321 319 320 320 319 316 314 311 307 304 302 298 296 291 281 270 262
307 308 312 315 318 321 322 322 321 322 324 325 327 328 329 329 328 327 326 326 326 326 326 324 322 323 323 322 321 320 319 318 315 312 307 303 298 296 293 291 284 274 266
308 308 311 314 317 319 321 323 324 324 325 327 328 329 331 332 332 331 330 329 329 328 329 328 328 327 326 325 323 322 320 319 316 313 310 304 300 295 291 289 284 278 271
308 310 312 314 316 318 322 325 325 326 327 329 330 331 332 333 334 333 333 332 331 330 329 329 328 327 327 326 324 323 321 319 316 313 309 306 301 297 291 285 283 278 273
308 309 311 313 316 319 322 323 324 326 328 330 331 332 333 334 333 333 333 333 332 332 331 330 330 329 329 328 327 326 324 322 319 315 311 305 300 297 293 287 282 277 272